Weather Service Report


829 
ASUS41 KAKQ 270215
RWRAKQ

REGIONAL WEATHER ROUNDUP
NATIONAL WEATHER SERVICE WAKEFIELD VA
1000 PM EDT TUE JUL 26 2016

Note: "fair" indicates few or no clouds below 12,000 feet with no
significant weather and/or obstructions to visibility. * = Denotes
station may not report precipitation (e.g., rain,snow,etc.),
thunder or fog.

VAZ042-051-052>054-056-270300-
NORTHERN VIRGINIA
  
CITY           SKY/WX    TMP DP  RH WIND       PRES   REMARKS
WASH NATIONAL  MOCLDY    89  69  51 CALM      29.94R                  
DULLES         MOCLDY    82  70  66 S5        29.95S                  
FORT BELVOIR   FAIR      81  71  71 CALM      29.94S                  
QUANTICO       FAIR      82  77  84 NW9       29.96R                  
FREDERICKSBRG* FAIR      80  80 100 W3        29.96R                  
STAFFORD*      FAIR      79  75  88 CALM      30.00R                  
WARRENTON      FAIR      78  72  83 SW6       29.97R                  
CULPEPER*      FAIR      76  74  92 CALM      29.98S                  
MANASSAS*      PTCLDY    79  75  89 CALM      29.95R                  
LEESBURG*      FAIR      81  77  89 SW3       29.96S                  
WINCHESTER     FAIR      81  70  69 SW6       29.98S                  
FRONT ROYAL*   FAIR      77  72  83 S6        29.98S                  
LURAY*         FAIR      73  73 100 CALM      30.00F                  
$$

VAZ048-049-060>072-079>083-270300-
CENTRAL AND SOUTH CENTRAL VIRGINIA
  
CITY           SKY/WX    TMP DP  RH WIND       PRES   REMARKS
RICHMOND       CLOUDY    77  75  93 N3        29.96R                  
CHESTERFIELD*  MOCLDY    77  63  61 NW5       29.97R                  
PETERSBURG*    DRIZZLE   79  79  98 CALM      29.96R                  
HANOVER        TSTM      76  72  87 NW13      30.00R FOG              
TAPPAHANNOCK*  FAIR      84  78  81 CALM      29.95R                  
QUINTON*       FAIR      79  78  96 SE3       29.94R                  
CHARLOTTSVILLE LGT RAIN  79  73  82 CALM      29.99R                  
GORDONSVILLE*  MOCLDY    76  73  91 CALM      29.97S                  
ORANGE*          N/A     73  73 100 CALM      29.98F                  
LOUISA*        MOCLDY    79  72  78 SE3       29.99R                  
BUMPASS*       FAIR      75  74  96 CALM      29.99S                  
FARMVILLE*     FAIR     N/A N/A N/A CALM      29.95S                  
CREWE*         FAIR      77  76  99 CALM      29.95S                  
FORT PICKETT*  FAIR      76  75  97 NW5       29.96R                  
CHASE CITY*    FAIR      77  75  94 N3        29.96R                  
CLARKSVILLE*   FAIR      79  75  89 S3        29.95S                  
SOUTH HILL*    FAIR      73  73 100 CALM      30.01S                  
LAWRENCEVILLE* FAIR      74  74 100 CALM      29.95R                  
EMPORIA*         N/A     73  73 100 CALM      29.95S                  
$$

VAZ088>098-270300-
SOUTHEAST VIRGINIA
  
CITY           SKY/WX    TMP DP  RH WIND       PRES   REMARKS
NORFOLK        FAIR      81  71  71 S7        29.93S                  
VIRGINIA BEACH MOCLDY    85  72  65 CALM      29.93S                  
NORFOLK NAVAL  MOCLDY    80  71  74 VRB3      29.94F                  
WEST POINT*    FAIR      81  77  89 CALM      29.95R                  
SALUDA*        FAIR      81  79  94 CALM      29.93S                  
NEWPORT NEWS   FAIR      81  75  82 CALM      29.94S                  
LANGLEY AFB    FAIR      81  74  78 S5        29.94S                  
FORT EUSTIS    FAIR      78  76  94 NE2       29.93R                  
WILLIAMSBURG*  FAIR      81  75  83 CALM      29.96R                  
HR EXEC AP*    FAIR      77  72  83 CALM      29.97S                  
FRANKLIN*      FAIR      76  73  91 S3        29.95S                  
US460-WAKEFLD  FAIR      78  73  84 CALM      29.94S                  
$$

VAZ020-022-025-037-045-270300-
WEST CENTRAL AND SOUTHWEST VIRGINIA
  
CITY           SKY/WX    TMP DP  RH WIND       PRES   REMARKS
STAUNTON*      LGT RAIN  73  72  98 CALM      30.04F                  
WAYNESBORO*    FAIR      73  72  96 S5        30.04F                  
HOT SPRINGS VA NOT AVBL                                               
LYNCHBURG      TSTM      72  72 100 NE10      30.05R FOG              
DANVILLE       FAIR      81  75  82 CALM      29.97R                  
SOUTH BOSTON*  MOCLDY    82  75  80 CALM      29.96R                  
MARTINSVILLE   FAIR      77  74  90 CALM      30.02R                  
ROANOKE        FAIR      82  72  71 N10       30.02R                  
BLACKSBURG     FAIR      79  72  81 CALM      30.10R                  
DUBLIN*        CLOUDY    81  72  74 SW3       30.09R                  
MARION*        FAIR      77  72  84 CALM      30.14R                  
HILLSVILLE*    FAIR      75  72  89 CALM      30.11R                  
RICHLANDS*     FAIR      78  73  83 CALM      30.13R                  
WISE*          FAIR      77  64  65 CALM      30.14R                  
ABINGDON*      FAIR      80  70  71 CALM      30.09R                  
$$

MDZ021>025-VAZ099-100-270300-
SOUTHERN MARYLAND AND THE DELMARVA PENINSULA
  
CITY           SKY/WX    TMP DP  RH WIND       PRES   REMARKS
PATUXENT RIVER CLOUDY    82  76  81 SW5       29.93S                  
BAY BRIDGE APT PTCLDY    84  73  70 SW3       29.93R                  
LEONARDTOWN      N/A     81  73  78 MISG        N/A                   
DOVER          CLEAR     82  78  88 S3        29.91F                  
GEORGETOWN     MOCLDY    80  73  79 CALM      29.94R                  
EASTON         NOT AVBL                                               
CAMBRIDGE      PTCLDY    79  77  94 CALM      29.93R                  
SALISBURY      CLOUDY    79  73  82 CALM      29.93S                  
OCEAN CITY     CLOUDY    79  75  87 VRB3      29.93S                  
WALLOPS ISLAND FAIR      80  77  90 S9        29.94S                  
ACCOMACK*      FAIR      81  75  83 CALM      29.94F                  
$$

NCZ012>017-030>032-270300-
NORTH CENTRAL AND EASTERN NORTH CAROLINA
  
CITY           SKY/WX    TMP DP  RH WIND       PRES   REMARKS
ROANOKE RAPIDS FAIR      73  73 100 S3        29.95S                  
RALEIGH        CLOUDY    78  73  84 W12       29.99R THUNDER          
ELIZABETH CITY CLOUDY    78  74  87 CALM      29.94R                  
AHOSKIE*       CLOUDY    76  75  98 CALM      29.95S                  
EDENTON*       CLOUDY    81  81 100 N7        29.95R                  
CURRITUCK*     CLOUDY    78  77  97 CALM      29.94S                  
KILL DEVIL HLS NOT AVBL                                               
MANTEO           N/A     80  77  89 CALM      29.94F                  
CAPE HATTERAS  CLOUDY    83  76  79 SW10G20   29.95F                  
TARBORO*       FAIR      81  77  89 CALM      29.96R                  
GOLDSBORO      CLEAR     86  76  71 S5        29.95R HX  96           
WASHINGTON     PTCLDY    84  77  79 S6        29.96R                  
GREENVILLE     CLOUDY    86  77  74 SW8       29.98R HX  97           
NEW BERN       CLEAR     81  75  82 S7        29.98R                  
WILMINGTON     CLEAR     82  76  81 S9        29.99R                  
$$

VAZ048-270300-
ELSEWHERE
  
CITY           SKY/WX    TMP DP  RH WIND       PRES   REMARKS
HARRISBURG PA  CLOUDY    83  74  74 SE3       29.93R                  
BALTIMORE      MOCLDY    83  70  64 CALM      29.92S                  
ANNAPOLIS      MOCLDY    83  75  77 CALM      29.93R                  
ANDREWS AFB    MOCLDY    83  72  69 SE2       29.94R                  
PHILADELPHIA   MOCLDY    85  72  65 SW9       29.93R                  
GREENSBORO     CLOUDY    83  74  74 CALM      29.99R                  
ROCKY MOUNT    CLOUDY    83  78  85 CALM      29.96R                  
$$

VAZ100-270300-
MARINE
  
STATION/POSITION TIME  TEMP    WIND        PRES    WAVE   SWELL
                       AIR SEA DIR/SP/G            HT/PER HT/PER
                 (UTC) (F)     (DEG/KT/KT) (MB)    (FT/S) (FT/S)
BRANDYWINE LGT   0100   82                   N/A
CAPE MAY NJ      0100   80 76                N/A
LEWES DE         0100   83 75                N/A
OCEAN-CITY-INLET 0100   78 74                N/A
WACHAPREAGUE VA  0100   82                   N/A
THOMAS POINT MD  0200   86 85  200/  4/  4 1014.9R
GOOSES REEF MD   0100   87 86  220/  6/  6 1014.2R   1
COVE POINT MD    0100   85                   N/A
SOLOMONS ISLAND  0100   85 86                N/A
BISHOPS HEAD MD  0100   86                   N/A
PINEY POINT MD   0100          210/  8/  9   N/A
POTOMAC MD       0100   85 86  210/  8/ 10 1012.6R   1
CAMBRIDGE MD     0100   86 88                N/A
LEWISETTA VA     0100   84 89                N/A
RAPPAHANNOCK LGT 0100          170/  7/  7   N/A
STINGRAY PT      0100   85 87  120/  8/ 10 1014.2R   1
YORK RVR RNG VA  0100   84                   N/A
YORKTOWN VA      0100   82 84                N/A
JAMESTOWN VA     0100   82 89  250/  2/  2   N/A
DOMINION TERM VA 0100   82                   N/A
KIPTOPEKE VA     0100      80                N/A
CHES BAY BRIDGE  0100   83 80                N/A
CAPE HENRY VA    0100   83                   N/A
WILLOUBY STN VA  0100   82                   N/A
CAPE HENRY BUOY  0112      77                N/A     2/ 6
1ST LANDING BUOY 0100   82 80  280/  4/  4 1013.4R
CAPE CHARLES BUO 0126      77                N/A     1/ 6
OFFSHORE WE BUOY 0121      83                N/A     2/ 6
64NM E OF VA BCH 0150   82 81   10/  2/  4 1013.8R   3/ 6   3/ 6
DUCK PIER NC     0100   77 67                N/A
44100 DUCK FRF   0105      78                N/A     2/ 6
44056 DUCK FRF   0111      72                N/A     1/ 6
OREGON INLET NC  0100   82 86                N/A
HATTERAS NC      0100   83 83                N/A
DIAMOND SHLS NC  0150   85 84  230/ 17/ 21 1014.3F   4/ 5
CAPE LOOKOUT NC  0200   83     220/ 12/ 16 1014.8F
$$
  

Return to Home page


Western Regional Climate Center, wrcc@dri.edu